808  
ASUS41 KOKX 201105  
RWROKX  
 
REGIONAL WEATHER ROUNDUP  
NATIONAL WEATHER SERVICE NEW YORK NY  
700 AM EDT THU SEP 20 2018  
 
NOTE: "FAIR" INDICATES FEW OR NO CLOUDS BELOW 12,000 FEET WITH NO  
SIGNIFICANT WEATHER AND/OR S TO VISIBILITY
.  
 
NYZ071-072-176-178-NJZ106-104-201200-  
NEW YORK CITY METRO AREA  
 
CITY SKY/WX TMP DP RH WIND PRES REMARKS
 
CENTRAL PARK CLOUDY 66 59 78 NE5 30.18R  
BRONX LEHMAN C N/A 64 55 72 E9 N/A  
LAGUARDIA ARPT CLOUDY 66 57 72 E9 30.15R  
QUEENS COLLEGE N/A 64 57 77 E5 N/A  
KENNEDY INTL MOCLDY 64 58 80 E7 30.17R  
BREEZY POINT N/A 63 N/A N/A NE7 N/A  
BROOKLYN COLL N/A 64 55 72 E7 N/A  
STATEN ISLAND N/A 64 57 77 E3 N/A  
NEWARK/LIBERTY CLOUDY 66 57 72 E7 30.15R  
TETERBORO CLOUDY 66 58 75 E5 30.15R  

 
 
NYZ177-179-078>081-201200-  
LONG ISLAND NEW YORK  
 
CITY SKY/WX TMP DP RH WIND PRES REMARKS
 
JONES BEACH N/A 63 N/A N/A E8 N/A  
WANTAGH N/A 63 57 82 NE5 N/A  
HEMPSTEAD N/A 63 57 82 E3 30.18R  
MATINECOCK PT N/A 64 N/A N/A E18 N/A  
FARMINGDALE CLOUDY 62 57 83 CALM 30.16R  
MACARTHUR/ISP MOCLDY 62 58 86 NE6 30.15R  
STONY BROOK N/A 63 57 82 E3 N/A  
SHIRLEY CLOUDY 61 55 81 NE3 30.16R  
MT SINAI HARB N/A N/A N/A N/A NE8G15 N/A  
WESTHAMPTON CLOUDY 61 55 81 N7 30.17R  
EAST HAMPTON MOCLDY 59 56 88 NE5 30.14S  
SOUTHOLD N/A 59 57 94 N5 N/A  
MONTAUK N/A 62 58 86 NE9G18 30.15R  

 
 
NYZ052-065-067-201200-  
HUDSON VALLEY  
 
CITY SKY/WX TMP DP RH WIND PRES REMARKS
 
WHITE PLAINS CLOUDY 61 54 77 E6 30.16R  
LARCHMONT HARB N/A 64 N/A N/A NE17 N/A  
CROTON ON HUDS N/A 63 N/A N/A MISG N/A  
SOMERS N/A 59 59 100 E1 N/A  
BREWSTER N/A 59 54 82 E2 N/A  
NEWBURGH DRIZZLE 59 57 94 CALM 30.17R FOG  
MONTGOMERY N/A N/A N/A N/A MISG 30.17R  
OTISVILLE N/A 57 55 94 NE2 N/A  
WARWICK N/A 61 61 100 NW2 N/A  
SUFFERN N/A 61 59 94 W1 N/A  
POUGHKEEPSIE CLOUDY 58 55 90 CALM 30.17R  
ALBANY CLOUDY 58 50 75 N3 30.18R  

 
 
NJZ001-105-106-008-010-013-015-019>022-104-201200-  
NEW JERSEY  
 
CITY SKY/WX TMP DP RH WIND PRES REMARKS
 
NEWARK/LIBERTY CLOUDY 66 57 72 E7 30.15R  
TETERBORO CLOUDY 66 58 75 E5 30.15R  
CALDWELL CLOUDY 64 60 87 SE6 30.17R  
SOMERVILLE CLOUDY 64 61 90 MISG 30.15R  
LINDEN CLOUDY 65 57 73 CALM 30.16R  
PERTH AMBOY N/A 64 N/A N/A E10 N/A  
SUSSEX CLOUDY 61 58 90 N5 30.16R  
ANDOVER N/A 63 61 93 CALM 30.16R  
TRENTON CLOUDY 66 60 81 E7 30.15R  
MILLVILLE CLOUDY 67 65 93 NE5 30.15R  
ATLANTIC CITY CLOUDY 69 65 86 E6 30.14R  
WRIGHTSTOWN NOT AVBL  
TOMS RIVER CLOUDY 66 61 84 E7 30.16R  
BELMAR CLOUDY 65 58 78 E9 30.16R  

 
 
PAZ047>061-062-071-201200-  
EASTERN PENNSYLVANIA  
 
CITY SKY/WX TMP DP RH WIND PRES REMARKS
 
PHILADELPHIA CLOUDY 67 63 87 E10 30.15R  
ALLENTOWN CLOUDY 67 60 78 E5 30.15R  
SCRANTON FAIR 54 53 97 SE3 30.17R  

 
 
CTZ002-004>006-009-010-012-RIZ004-006-007-MAZ004-011-015-201200-  
SOUTHERN NEW ENGLAND  
 
IN CT  
 
CITY SKY/WX TMP DP RH WIND PRES REMARKS
 
BRADLEY INTL CLOUDY 61 56 83 N3 30.19R  
HARTFORD CLOUDY 62 55 77 N8 30.18R  
DANBURY CLOUDY 60 55 83 E5 30.19R  
WTRBURY/OXFORD CLOUDY 58 54 86 NE8 30.19R  
NORWALK HARBOR N/A 63 N/A N/A N10 N/A  
BRIDGEPORT CLOUDY 63 54 72 NE9 30.16R  
MERIDEN CLOUDY 61 54 77 VRB3 30.17R  
NEW HAVEN CLOUDY 62 56 80 N5 30.17R  
CHESTER CLOUDY 59 55 88 NE6 30.17R  
GROTON FAIR 59 56 89 N7 30.15R  
WILLIMANTIC MOCLDY 58 56 93 N3 30.18R  
 
IN RI  
 
CITY SKY/WX TMP DP RH WIND PRES REMARKS
 
PROVIDENCE FAIR 59 56 89 N7 30.16R  
BLOCK ISLAND MOCLDY 61 58 90 NE10G18 30.15R  
WESTERLY FAIR 59 57 93 N6 30.15R  
 
IN MA  
 
CITY SKY/WX TMP DP RH WIND PRES REMARKS
 
BOSTON MOCLDY 61 56 83 NE12 30.18R  
WORCESTER CLOUDY 55 53 93 NE5 30.20R  
WESTFIELD CLOUDY 59 58 96 N5 30.19R  
PROVINCETOWN CLOUDY 61 60 97 NE14 30.15R  
NANTUCKET CLOUDY 62 60 93 NE10 30.11R  

 
 
ANZ330-335-338-340-345-350-353-355-201200-  
COASTAL MARINE OBSERVATIONS  
 
 
STATION/POSITION TIME SKY/WX TEMP WIND PRES VSBY WAVE
 
AIR SEA DIR/SP/G HT/PER  
(UTC) (F) (DEG/KT/KT) (MB) (MI) (FT/S)  
NY HARB ENTRANCE 1050 66 72 60/ 12/ 16 1020.9 4/ 6  
20 S FIRE ISLAND 1050 66 70 60/ 14/ 17 1020.2 5/ 8  
GREAT SOUTH BAY 1015 64 74 40/ 8/ 14 N/A  
23 SSW MONTAUK P 1050 64 68 50/ 16/ 19 1020.0 5/ 6  
15 E BARNEGAT LI 1100 73 N/A 6/ 7  
HUDSON CANYON 1050 67 40/ 19/ 23 1019.3 7/ 7  
KINGS POINT 1042 64 74 1022.1  
EXECUTION ROCKS 1015 73 80/ 14/ 19 N/A  
WESTERN LI SOUND 0950 66 80/ 16/ 19 N/A 3/ 4  
CENTRAL LI SOUND 1030 63 73 50/ 12/ 16 N/A 2/ 3  
ROBBINS REEF 1042 66 1021.6  

 
 
>>>>>>>>>>>>>>>>>>>>>>>>>>>> KEY <<<<<<<<<<<<<<<<<<<<<<<<<<<  
> <  
> SKY/WX - SKY CONDITION/PRESENT WEATHER <  
> TMP - TEMPERATURE IN FAHRENHEIT <  
> DP - DEW POINT IN FAHRENHEIT <  
> RH - RELATIVE HUMIDITY IN PERCENT <  
> WIND - DIRECTION (FROM) AND SPEED IN MPH <  
> PRES - MEAN SEA LEVEL PRESSURE (INCHES OF HG) <  
> WCI - WIND CHILL INDEX <  
> VSB - VISIBILITY IN MILES <  
> HX - HEAT INDEX <  
> TC - TEMPERATURE IN CELSIUS <  
> VRB - VARIABLE WIND DIRECTION <  
> <  
>>>>>>>>>>>>>>>>>>>>>>>>>>>> KEY <<<<<<<<<<<<<<<<<<<<<<<<<<<  
 
 
CLICK HERE TO GO TO PREVIOUS BULLETINS.

The Nexlab NY Page
The Nexlab NJ Page
The Nexlab CT Page Main Text Page